CW3151 Weather Reports


time (UTC)temp
F
wind
direction
speed
knots
gust
knots
rain 1hr
in
rain 24hr
in
rain mn
in
humidity
%
barometer
mb
20260906043325 70 296 0.0 0.0 0.00 0.00 0.00 91 1017.0
20260906041829 70 296 0.0 0.0 0.00 0.00 0.00 91 1016.9
20260906040316 70 296 0.0 0.0 0.00 0.00 0.00 91 1016.9
20260906034819 70 296 0.0 0.0 0.00 0.00 0.00 91 1017.3
20260906033321 71 296 0.0 0.0 0.00 0.00 0.00 91 1017.3
20260906031849 70 296 0.0 0.0 0.00 0.00 0.00 91 1017.4
20260906030311 70 296 0.0 0.0 0.00 0.00 0.00 91 1017.5
20260906024818 70 296 0.0 0.0 0.00 0.00 0.00 91 1017.4
20260906023322 70 296 0.0 0.0 0.00 0.00 0.00 90 1017.4
20260906021827 70 296 0.0 0.0 0.00 0.00 0.00 90 1017.2
20260906020332 71 296 0.0 0.0 0.00 0.00 0.00 89 1016.9
20260906014817 71 296 0.0 0.0 0.00 0.00 0.00 89 1016.9
20260906013321 71 296 0.0 0.0 0.00 0.00 0.00 89 1017.0
20260906011827 71 296 0.0 0.0 0.00 0.00 0.00 88 1017.0
20260906010331 72 296 0.0 0.0 0.00 0.00 0.00 88 1016.8
20260906004818 72 296 0.0 0.0 0.00 0.00 0.00 87 1016.7
20260906003321 73 296 0.0 0.0 0.00 0.00 0.00 86 1016.5
20260906001827 73 296 0.0 0.0 0.00 0.00 0.00 87 1016.3
20260906000352 73 296 0.0 0.0 0.00 0.00 0.00 86 1016.0
20260905234818 74 296 0.0 0.0 0.00 0.00 0.00 86 1015.9
20260905233321 74 296 0.0 0.0 0.00 0.00 0.00 85 1015.8
20260905231822 74 296 0.0 0.0 0.00 0.00 0.00 85 1015.9
20260905230331 74 296 0.0 0.0 0.00 0.00 0.00 85 1015.9
20260905224833 75 296 0.0 0.0 0.00 0.00 0.00 84 1015.8
20260905223320 75 296 0.0 0.0 0.00 0.00 0.00 83 1015.8
20260905221820 75 296 0.0 0.0 0.00 0.00 0.00 83 1015.9
20260905220330 75 296 0.0 0.0 0.00 0.00 0.00 83 1015.8
20260905214812 76 296 0.0 0.0 0.00 0.00 0.00 82 1016.0
20260905213319 76 296 0.0 0.0 0.00 0.00 0.00 82 1016.4
20260905211822 76 296 0.0 0.0 0.00 0.00 0.00 81 1016.5
20260905210328 76 296 0.0 0.0 0.00 0.00 0.00 80 1016.7
20260905204851 76 296 0.0 0.0 0.00 0.00 0.00 79 1016.6
20260905203319 76 296 0.0 0.0 0.00 0.00 0.00 78 1016.8
20260905201820 76 296 0.0 0.0 0.00 0.00 0.00 77 1017.0
20260905200325 76 296 0.0 0.0 0.00 0.00 0.00 79 1017.1
20260905194811 75 296 0.0 0.0 0.00 0.00 0.00 78 1017.2
20260905193314 75 296 0.0 0.0 0.00 0.00 0.00 75 1017.2
20260905191841 76 296 0.0 0.0 0.00 0.00 0.00 75 1017.5
20260905190322 76 296 0.0 0.0 0.00 0.00 0.00 68 1017.8
20260905184829 76 61 0.0 0.0 0.00 0.00 0.00 69 1018.5
20260905183312 77 98 0.0 0.0 0.00 0.00 0.00 75 1018.5
20260905181819 78 95 0.0 0.0 0.00 0.00 0.00 75 1017.8
20260905180343 80 38 0.0 0.0 0.00 0.00 0.00 77 1017.5
20260905174827 82 35 0.0 0.0 0.00 0.00 0.00 74 1017.5
20260905173349 85 34 0.0 0.0 0.00 0.00 0.00 68 1017.7
20260905171851 86 34 0.0 0.0 0.00 0.00 0.00 63 1017.7
20260905170338 85 306 0.0 0.9 0.00 0.00 0.00 63 1017.9
20260905164819 84 66 0.0 0.0 0.00 0.00 0.00 64 1018.0
20260905163326 84 24 0.0 0.0 0.00 0.00 0.00 67 1018.2
20260905161830 83 63 0.0 0.0 0.00 0.00 0.00 69 1018.4
20260905160317 83 291 0.0 0.0 0.00 0.00 0.00 74 1018.5
20260905154821 81 242 0.0 0.0 0.00 0.00 0.00 73 1018.5
20260905153327 80 246 0.0 0.0 0.00 0.00 0.00 80 1018.5
20260905151831 79 250 0.0 0.0 0.00 0.00 0.00 79 1018.5
20260905150317 78 250 0.0 0.0 0.00 0.00 0.00 84 1018.4
20260905144820 77 250 0.0 0.0 0.00 0.00 0.00 84 1018.6
20260905143323 76 250 0.0 0.0 0.00 0.00 0.00 86 1018.7
20260905141830 75 250 0.0 0.0 0.00 0.00 0.00 88 1018.7
20260905140314 74 250 0.0 0.0 0.00 0.00 0.00 89 1018.9
20260905134840 73 250 0.0 0.0 0.00 0.00 0.00 91 1018.9
20260905133323 72 250 0.0 0.0 0.00 0.00 0.00 92 1019.0
20260905131850 71 250 0.0 0.0 0.00 0.00 0.00 93 1019.0
20260905130311 71 250 0.0 0.0 0.00 0.00 0.00 93 1019.0
20260905124818 70 250 0.0 0.0 0.00 0.00 0.00 94 1019.0
20260905123323 69 250 0.0 0.0 0.00 0.00 0.00 94 1018.9
20260905121829 69 250 0.0 0.0 0.00 0.00 0.00 94 1018.8
20260905120352 68 250 0.0 0.0 0.00 0.00 0.00 93 1018.8
20260905114835 68 250 0.0 0.0 0.00 0.00 0.00 93 1018.5
20260905113321 68 250 0.0 0.0 0.00 0.00 0.00 93 1018.4
20260905111823 68 250 0.0 0.0 0.00 0.00 0.00 93 1018.2
20260905110312 68 250 0.0 0.0 0.00 0.00 0.00 93 1018.1
20260905104813 68 250 0.0 0.0 0.00 0.00 0.00 93 1017.9
20260905103321 68 250 0.0 0.0 0.00 0.00 0.00 93 1017.9
20260905101823 68 250 0.0 0.0 0.00 0.00 0.00 93 1017.7
20260905100330 68 250 0.0 0.0 0.00 0.00 0.00 92 1017.7
20260905094812 69 250 0.0 0.0 0.00 0.00 0.00 93 1017.6
20260905093319 69 250 0.0 0.0 0.00 0.00 0.00 93 1017.7
20260905091823 69 250 0.0 0.0 0.00 0.00 0.00 93 1017.8
20260905090331 69 250 0.0 0.0 0.00 0.00 0.00 93 1017.8
20260905084814 69 250 0.0 0.0 0.00 0.00 0.00 93 1017.9
20260905083320 69 250 0.0 0.0 0.00 0.00 0.00 93 1018.2
20260905081822 69 250 0.0 0.0 0.00 0.00 0.00 93 1018.2
20260905080331 69 250 0.0 0.0 0.00 0.00 0.00 93 1018.3
20260905074812 69 250 0.0 0.0 0.00 0.00 0.00 93 1018.3
20260905073320 70 250 0.0 0.0 0.00 0.00 0.00 93 1018.4
20260905071822 70 250 0.0 0.0 0.00 0.00 0.00 92 1018.5
20260905070347 70 250 0.0 0.0 0.00 0.00 0.00 92 1018.6
20260905064833 70 250 0.0 0.0 0.00 0.00 0.00 92 1018.7
20260905063315 70 250 0.0 0.0 0.00 0.00 0.00 92 1018.9
20260905061822 70 250 0.0 0.0 0.00 0.00 0.00 92 1018.9
20260905060323 70 250 0.0 0.0 0.00 0.00 0.00 92 1019.0
20260905054850 71 250 0.0 0.0 0.00 0.00 0.00 92 1019.3
20260905053313 71 250 0.0 0.0 0.00 0.00 0.00 92 1019.3
20260905051820 71 250 0.0 0.0 0.00 0.00 0.00 92 1019.3
20260905050323 71 250 0.0 0.0 0.00 0.00 0.00 91 1019.4
20260905044825 71 250 0.0 0.0 0.00 0.00 0.00 92 1019.3